Flag Weather past 2 weeks in Freehold, New Jersey, U.S.A.

Now
37 °F

Low clouds.


Feels Like: 28 °F
Forecast: 34 / 45 °F
Wind: 16 mph from North

Location: Belmar-Farmdale

Current Time: Nov 26, 2014 at 2:03:18 PM

Latest Report: Nov 26, 2014 at 1:35 PM


Visibility: 5 mi

Pressure: 29.88 "Hg

Humidity: 75%

Dew point: 30 °F

Location of FreeholdLocation

Historic Weather in Freehold — Graph

°F

Freehold temperature yesterday

Maximum temperature yesterday: 66 °F (at 12:15 AM)
Minimum temperature yesterday: 45 °F (at 11:35 PM)
Average temperature yesterday: 55 °F

Past Weeks' High & Low Weather Summary

 TemperatureHumidityPressure
High72 °F (Nov 24, 12:55 PM)88% (Nov 11, 7:15 PM)30.51 "Hg (Nov 11, 7:15 PM)
Low21 °F (Nov 19, 3:35 AM)29% (Nov 18, 12:35 PM)29.51 "Hg (Nov 17, 5:35 PM)
Average42 °F55%30.07 "Hg
* Reported Nov 11 12:15 PM — Nov 26 12:55 PM, Freehold, Weather by CustomWeather, © 2014

Note: Actual official high and low records may vary slightly from our data, if they occured in-between our weather recording intervals... More about our weather records

Advertising

Freehold weather history for previous 24 hours

 ConditionsComfort  
Time TempWeatherWind HumidityBarometerVisibility
12:55 PM
Nov 26
37 °FMostly cloudy.15 mph75%29.94 "Hg5 mi
12:35 PM37 °FMostly cloudy.15 mph81%29.96 "Hg4 mi
12:15 PM37 °FMostly cloudy.14 mph81%29.96 "Hg6 mi
11:55 AM37 °FLow clouds.13 mph75%29.99 "Hg5 mi
11:35 AM37 °FLow clouds.15 mph75%29.95 "Hg3 mi
11:15 AM37 °FLow clouds.14 mph75%30.00 "Hg4 mi
10:55 AM37 °FMostly cloudy.13 mph75%30.03 "Hg3 mi
10:35 AM39 °FMostly cloudy.15 mph75%30.08 "Hg4 mi
10:15 AM39 °FMostly cloudy.12 mph75%30.09 "Hg5 mi
9:55 AM39 °FMostly cloudy.13 mph81%30.07 "Hg2 mi
9:35 AM39 °FMore clouds than sun.12 mph81%30.08 "Hg3 mi
9:15 AM41 °FMostly cloudy.10 mph76%30.11 "Hg5 mi
8:55 AM41 °FMostly cloudy.13 mph76%30.08 "Hg5 mi
8:35 AM43 °FMostly cloudy.9 mph71%30.07 "Hg10 mi
8:15 AM43 °FMostly cloudy.12 mph66%30.07 "Hg10 mi
7:55 AM45 °FOvercast.13 mph57%30.10 "Hg10 mi
7:35 AM46 °FMostly cloudy.14 mph53%30.12 "Hg10 mi
7:15 AM45 °FCloudy.9 mph57%30.11 "Hg10 mi
6:55 AM45 °FMostly cloudy.6 mph66%30.11 "Hg10 mi
6:35 AM45 °FOvercast.No wind66%30.11 "Hg10 mi
6:15 AM45 °FOvercast.3 mph61%30.09 "Hg10 mi
5:55 AM46 °FOvercast.7 mph53%30.10 "Hg10 mi
5:35 AM46 °FMostly cloudy.10 mph53%30.10 "Hg10 mi
5:15 AM46 °FOvercast.9 mph50%30.09 "Hg10 mi
4:55 AM48 °FOvercast.8 mph46%30.09 "Hg10 mi
4:35 AM48 °FMostly cloudy.7 mph46%30.10 "Hg10 mi
4:15 AM48 °FOvercast.5 mph46%30.10 "Hg10 mi
3:55 AM48 °FMostly cloudy.7 mph46%30.11 "Hg10 mi
3:35 AM48 °FMostly cloudy.7 mph46%30.14 "Hg10 mi
3:15 AM48 °FOvercast.6 mph46%30.17 "Hg10 mi
2:55 AM46 °FOvercast.10 mph53%30.16 "Hg10 mi
2:35 AM45 °FOvercast.10 mph66%30.18 "Hg10 mi
2:15 AM46 °FOvercast.No wind53%30.19 "Hg10 mi
1:55 AM45 °FOvercast.No wind57%30.18 "Hg10 mi
1:35 AM45 °FMostly cloudy.6 mph57%30.17 "Hg10 mi
1:15 AM46 °FOvercast.No wind53%30.18 "Hg10 mi
12:55 AM46 °FOvercast.No wind53%30.18 "Hg10 mi
12:35 AM46 °FOvercast.3 mph53%30.16 "Hg10 mi
12:15 AM46 °FPassing clouds.5 mph53%30.16 "Hg10 mi
11:55 PM
Nov 25
46 °FPassing clouds.3 mph53%30.16 "Hg10 mi
11:35 PM45 °FClear.3 mph57%30.16 "Hg10 mi
11:15 PM46 °FClear.No wind53%30.18 "Hg10 mi
10:35 PM46 °FClear.3 mph53%30.17 "Hg10 mi
10:15 PM46 °FClear.5 mph53%30.15 "Hg10 mi
9:55 PM46 °FClear.No wind50%30.14 "Hg10 mi
9:35 PM46 °FClear.No wind53%30.13 "Hg10 mi
9:15 PM46 °FClear.5 mph50%30.14 "Hg10 mi
8:55 PM46 °FClear.No wind53%30.12 "Hg10 mi
8:35 PM48 °FClear.3 mph46%30.13 "Hg10 mi
8:15 PM48 °FClear.6 mph46%30.12 "Hg10 mi
7:55 PM48 °FClear.3 mph50%30.10 "Hg10 mi
7:35 PM48 °FClear.3 mph46%30.09 "Hg10 mi
7:15 PM48 °FClear.5 mph46%30.09 "Hg10 mi
6:55 PM48 °FClear.6 mph46%30.07 "Hg10 mi
6:35 PM48 °FClear.5 mph46%30.06 "Hg10 mi
6:15 PM50 °FClear.3 mph43%30.06 "Hg10 mi
5:55 PM50 °FClear.5 mph43%30.06 "Hg10 mi
5:35 PM52 °FClear.3 mph41%30.06 "Hg10 mi
5:15 PM52 °FClear.3 mph41%30.06 "Hg10 mi
4:55 PM52 °FClear.3 mph41%30.05 "Hg10 mi
4:35 PM52 °FClear.5 mph41%30.04 "Hg10 mi
4:15 PM52 °FSunny.5 mph41%30.02 "Hg10 mi
3:55 PM52 °FSunny.5 mph41%30.03 "Hg10 mi
3:35 PM54 °FSunny.7 mph38%30.02 "Hg10 mi
3:15 PM54 °FSunny.10 mph35%30.01 "Hg10 mi
2:55 PM54 °FSunny.13 mph38%30.01 "Hg10 mi
2:35 PM54 °FSunny.7 mph38%30.01 "Hg10 mi
2:15 PM54 °FSunny.7 mph38%30.00 "Hg10 mi
Weather by CustomWeather, © 2014

See weather overviewHow to use our weather pages